Weather History for Providence, RI

Change the Weather History Date:

Sunday, July 14, 2013

  Actual Average Record
Temperature  
Mean Temperature 82 °F 74 °F  
Max Temperature 92 °F 83 °F 98 °F (1995)
Min Temperature 72 °F 64 °F 53 °F (1999)
Degree Days  
Heating Degree Days 0 0  
Month to date heating degree days 0 0  
Since 1 June heating degree days 24 43  
Since 1 July heating degree days 0 0  
Cooling Degree Days 17 9  
Month to date cooling degree days 196 114  
Year to date cooling degree days 404 272  
Since 1 June cooling degree days 360 246  
Growing Degree Days 32 (Base 50)    
Moisture  
Dew Point 71 °F    
Average Humidity 74    
Maximum Humidity 100    
Minimum Humidity 47    
Precipitation  
Precipitation T in 0.11 in 2.21 in (1960)
Month to date precipitation 0.80 1.36  
Year to date precipitation 25.48 25.07  
Snow  
Snow 0.00 in 0.00 in 0.00 in (2002)
Month to date snowfall 0.0 0.0  
Since 1 June snowfall 0.0 0.0  
Since 1 July snowfall 0.0 0.0  
Snow Depth 0.00 in    
Sea Level Pressure  
Sea Level Pressure 30.27 in    
Wind  
Wind Speed 6 mph (West)    
Max Wind Speed 15 mph    
Max Gust Speed 18 mph    
Visibility 9 miles    
Events      
T = Trace of Precipitation, MM = Missing Value Source: NWS Daily Summary

Daily Weather History Graph

Daily Weather History Graph

Search for Another Location

Airport:

Trip Planner

Search our weather history database for the weather conditions in past years. The results will help you decide how hot, cold, wet, or windy it might be!

Date:

Astronomy

Jul. 14, 2013 Rise Set
Actual Time 5:23 AM EDT 8:19 PM EDT
Civil Twilight 4:50 AM EDT 8:52 PM EDT
Nautical Twilight 4:08 AM EDT 9:34 PM EDT
Astronomical Twilight 3:19 AM EDT 10:22 PM EDT
Moon 11:43 AM EDT (7/14) 11:23 PM EDT (7/14)
Length of Visible Light 16h 01m
Length of Day
14h 55m
Waxing Crescent, 35% of the Moon is Illuminated
Jul 14
Waxing Crescent
Jul 15
First Quarter
Jul 22
Full
Jul 29
Last Quarter
Aug 6
New

Hourly Weather History & Observations

Time (EDT) Temp. Heat Index Dew Point Humidity Pressure Visibility Wind Dir Wind Speed Gust Speed Precip Events Conditions
12:51 AM 73.0 °F - 72.0 °F 96% 30.31 in 2.0 mi SW 5.8 mph - N/A   Overcast
1:18 AM 73.4 °F - 71.6 °F 94% 30.31 in 4.0 mi SSW 4.6 mph - N/A   Overcast
1:51 AM 72.0 °F - 71.1 °F 97% 30.29 in 5.0 mi South 6.9 mph - N/A   Overcast
2:51 AM 73.0 °F - 71.1 °F 93% 30.30 in 10.0 mi Calm Calm - N/A   Overcast
3:51 AM 73.0 °F - 71.1 °F 93% 30.29 in 10.0 mi Calm Calm - N/A   Overcast
4:51 AM 73.0 °F - 72.0 °F 96% 30.29 in 10.0 mi Calm Calm - 0.00 in   Overcast
5:51 AM 73.9 °F - 72.0 °F 93% 30.30 in 10.0 mi Calm Calm - N/A   Overcast
6:51 AM 75.0 °F - 72.0 °F 90% 30.30 in 10.0 mi Calm Calm - N/A   Overcast
7:51 AM 78.1 °F - 71.1 °F 79% 30.31 in 10.0 mi West 9.2 mph - N/A   Mostly Cloudy
8:16 AM 78.8 °F - 71.6 °F 78% 30.31 in 10.0 mi WNW 5.8 mph - N/A   Scattered Clouds
8:51 AM 81.0 °F 85.2 °F 72.0 °F 74% 30.31 in 10.0 mi West 5.8 mph - N/A   Scattered Clouds
9:51 AM 82.9 °F 87.5 °F 71.1 °F 67% 30.30 in 10.0 mi NW 8.1 mph - N/A   Mostly Cloudy
10:51 AM 84.0 °F 88.4 °F 70.0 °F 63% 30.29 in 10.0 mi NNW 5.8 mph - N/A   Mostly Cloudy
11:51 AM 88.0 °F 92.9 °F 70.0 °F 55% 30.28 in 10.0 mi NW 6.9 mph - N/A   Mostly Cloudy
12:51 PM 90.0 °F 94.5 °F 69.1 °F 50% 30.27 in 10.0 mi WNW 10.4 mph - N/A   Scattered Clouds
1:51 PM 90.0 °F 93.6 °F 68.0 °F 48% 30.25 in 10.0 mi West 9.2 mph - N/A   Scattered Clouds
2:51 PM 89.1 °F 92.1 °F 66.9 °F 48% 30.24 in 10.0 mi WNW 9.2 mph - N/A   Mostly Cloudy
3:51 PM 90.0 °F 94.5 °F 69.1 °F 50% 30.23 in 10.0 mi WNW 9.2 mph - N/A   Scattered Clouds
4:51 PM 91.0 °F 95.6 °F 69.1 °F 48% 30.22 in 10.0 mi WNW 8.1 mph - N/A   Mostly Cloudy
5:51 PM 90.0 °F 95.4 °F 70.0 °F 52% 30.20 in 10.0 mi West 4.6 mph - N/A   Scattered Clouds
6:51 PM 88.0 °F 92.9 °F 70.0 °F 55% 30.21 in 10.0 mi West 6.9 mph - N/A   Scattered Clouds
7:51 PM 84.0 °F 91.9 °F 75.0 °F 74% 30.21 in 10.0 mi SW 10.4 mph - N/A   Scattered Clouds
8:51 PM 82.9 °F 88.8 °F 73.0 °F 72% 30.22 in 10.0 mi WSW 8.1 mph - N/A   Mostly Cloudy
9:51 PM 81.0 °F 85.8 °F 73.0 °F 77% 30.22 in 10.0 mi West 5.8 mph - N/A   Mostly Cloudy
10:51 PM 80.1 °F 83.8 °F 72.0 °F 76% 30.22 in 10.0 mi WNW 5.8 mph - N/A   Scattered Clouds
11:51 PM 79.0 °F - 72.0 °F 79% 30.22 in 10.0 mi West 6.9 mph - N/A   Mostly Cloudy